Find Starlink 5546

NORAD ID: 55632 Int'l Des: 2023-021 Owner: SPXS Country: US Constellation: starlink operational
LEOCIRCULAR

現在のビュー

3D地球を読み込み中...

About Starlink 5546

Starlink 5546 (NORAD 55632) is a starlink constellation satellite (v1.5) launched Feb 17, 2023 by SPXS of US. It operates in LEO, CIRCULAR orbit with a mass of 305.00 kg.

Starlink 5546について

説明を読み込み中...

次回通過

Passes for default location (London). Set your location on the main map for personalized predictions.

高度履歴

Loading altitude history...

軌道要素

1 55632U 23021E 26173.60743185 .00000129 00000-0 18567-4 0 9995
2 55632 69.9999 299.9268 0003049 267.6705 92.4105 14.98332034184010
Epoch: Jun 22, 2026 • Age: 26 hours

現在のステータス

高度 579.9 km
速度 7.57 km/s
衛星直下点 45.64°N, 68.34°W
打ち上げ日 Feb 17, 2023
運用期間 3.3 years
タイプ internet

技術仕様

分類 Payload
質量 305.00 kg
乾燥質量 290.00 kg
総質量 305.00 kg
長さ 0.20 m
直径 2.80 m
スパン 9.00 m
形状 Box + pan
製造者 SPXS
バスタイプ Starlink
フェーズステータス In Orbit
所有者/国 SPXS/US

Most Searched